Year,Month,Day,Hour,Minute,Value (Times are PST for temperature in C)
2010,10,31,00,00,9.70
2010,10,31,00,01,9.60
2010,10,31,00,02,9.60
2010,10,31,00,03,9.60
2010,10,31,00,04,9.60
2010,10,31,00,05,9.60
2010,10,31,00,06,9.60
2010,10,31,00,07,9.50
2010,10,31,00,08,9.50
2010,10,31,00,09,9.50
2010,10,31,00,10,9.50
2010,10,31,00,11,9.40
2010,10,31,00,12,9.40
2010,10,31,00,13,9.40
2010,10,31,00,14,9.40
2010,10,31,00,15,9.40
2010,10,31,00,16,9.40
2010,10,31,00,17,9.40
2010,10,31,00,18,9.50
2010,10,31,00,19,9.50
2010,10,31,00,20,9.50
2010,10,31,00,21,9.50
2010,10,31,00,22,9.50
2010,10,31,00,23,9.50
2010,10,31,00,24,9.50
2010,10,31,00,25,9.40
2010,10,31,00,26,9.40
2010,10,31,00,27,9.40
2010,10,31,00,28,9.40
2010,10,31,00,29,9.40
2010,10,31,00,30,9.40
2010,10,31,00,31,9.30
2010,10,31,00,32,9.30
2010,10,31,00,33,9.30
2010,10,31,00,34,9.30
2010,10,31,00,35,9.20
2010,10,31,00,36,9.20
2010,10,31,00,37,9.20
2010,10,31,00,38,9.20
2010,10,31,00,39,9.20
2010,10,31,00,40,9.10
2010,10,31,00,41,9.10
2010,10,31,00,42,9.10
2010,10,31,00,43,9.10
2010,10,31,00,44,9.00
2010,10,31,00,45,9.00
2010,10,31,00,46,9.00
2010,10,31,00,47,9.00
2010,10,31,00,48,9.00
2010,10,31,00,49,9.00
2010,10,31,00,50,9.00
2010,10,31,00,51,9.00
2010,10,31,00,52,9.00
2010,10,31,00,53,9.10
2010,10,31,00,54,9.10
2010,10,31,00,55,9.10
2010,10,31,00,56,9.10
2010,10,31,00,57,9.20
2010,10,31,00,58,9.10
2010,10,31,00,59,9.10
2010,10,31,01,00,9.10
2010,10,31,01,01,9.10
2010,10,31,01,02,9.10
2010,10,31,01,03,9.00
2010,10,31,01,04,9.00
2010,10,31,01,05,9.00
2010,10,31,01,06,8.90
2010,10,31,01,07,8.90
2010,10,31,01,08,8.90
2010,10,31,01,09,8.90
2010,10,31,01,10,8.80
2010,10,31,01,11,8.90
2010,10,31,01,12,8.90
2010,10,31,01,13,8.90
2010,10,31,01,14,8.90
2010,10,31,01,15,8.90
2010,10,31,01,16,8.90
2010,10,31,01,17,8.90
2010,10,31,01,18,8.90
2010,10,31,01,19,8.90
2010,10,31,01,20,8.90
2010,10,31,01,21,8.90
2010,10,31,01,22,8.90
2010,10,31,01,23,8.90
2010,10,31,01,24,8.90
2010,10,31,01,25,8.90
2010,10,31,01,26,8.90
2010,10,31,01,27,8.90
2010,10,31,01,28,8.90
2010,10,31,01,29,8.90
2010,10,31,01,30,8.90
2010,10,31,01,31,8.90
2010,10,31,01,32,8.90
2010,10,31,01,33,8.90
2010,10,31,01,34,8.90
2010,10,31,01,35,8.90
2010,10,31,01,36,8.90
2010,10,31,01,37,8.80
2010,10,31,01,38,8.80
2010,10,31,01,39,8.70
2010,10,31,01,40,8.70
2010,10,31,01,41,8.70
2010,10,31,01,42,8.60
2010,10,31,01,43,8.60
2010,10,31,01,44,8.50
2010,10,31,01,45,8.50
2010,10,31,01,46,8.40
2010,10,31,01,47,8.40
2010,10,31,01,48,8.40
2010,10,31,01,49,8.40
2010,10,31,01,50,8.30
2010,10,31,01,51,8.30
2010,10,31,01,52,8.30
2010,10,31,01,53,8.30
2010,10,31,01,54,8.30
2010,10,31,01,55,8.30
2010,10,31,01,56,8.20
2010,10,31,01,57,8.20
2010,10,31,01,58,8.20
2010,10,31,01,59,8.20
2010,10,31,02,00,8.20
2010,10,31,02,01,8.20
2010,10,31,02,02,8.10
2010,10,31,02,03,8.10
2010,10,31,02,04,8.10
2010,10,31,02,05,8.00
2010,10,31,02,06,8.00
2010,10,31,02,07,7.90
2010,10,31,02,08,7.90
2010,10,31,02,09,7.80
2010,10,31,02,10,7.80
2010,10,31,02,11,7.80
2010,10,31,02,12,7.70
2010,10,31,02,13,7.70
2010,10,31,02,14,7.70
2010,10,31,02,15,7.70
2010,10,31,02,16,7.60
2010,10,31,02,17,7.60
2010,10,31,02,18,7.50
2010,10,31,02,19,7.50
2010,10,31,02,20,7.40
2010,10,31,02,21,7.40
2010,10,31,02,22,7.40
2010,10,31,02,23,7.30
2010,10,31,02,24,7.30
2010,10,31,02,25,7.20
2010,10,31,02,26,7.20
2010,10,31,02,27,7.20
2010,10,31,02,28,7.20
2010,10,31,02,29,7.10
2010,10,31,02,30,7.10
2010,10,31,02,31,7.10
2010,10,31,02,32,7.00
2010,10,31,02,33,6.90
2010,10,31,02,34,6.90
2010,10,31,02,35,6.90
2010,10,31,02,36,6.80
2010,10,31,02,37,6.80
2010,10,31,02,38,6.80
2010,10,31,02,39,6.80
2010,10,31,02,40,6.80
2010,10,31,02,41,6.80
2010,10,31,02,42,6.70
2010,10,31,02,43,6.70
2010,10,31,02,44,6.70
2010,10,31,02,45,6.70
2010,10,31,02,46,6.60
2010,10,31,02,47,6.60
2010,10,31,02,48,6.60
2010,10,31,02,49,6.50
2010,10,31,02,50,6.50
2010,10,31,02,51,6.50
2010,10,31,02,52,6.40
2010,10,31,02,53,6.40
2010,10,31,02,54,6.30
2010,10,31,02,55,6.30
2010,10,31,02,56,6.30
2010,10,31,02,57,6.30
2010,10,31,02,58,6.20
2010,10,31,02,59,6.20
2010,10,31,03,00,6.20
2010,10,31,03,01,6.20
2010,10,31,03,02,6.20
2010,10,31,03,03,6.10
2010,10,31,03,04,6.10
2010,10,31,03,05,6.10
2010,10,31,03,06,6.10
2010,10,31,03,07,6.10
2010,10,31,03,08,6.10
2010,10,31,03,09,6.10
2010,10,31,03,10,6.10
2010,10,31,03,11,6.10
2010,10,31,03,12,6.10
2010,10,31,03,13,6.10
2010,10,31,03,14,6.10
2010,10,31,03,15,6.10
2010,10,31,03,16,6.00
2010,10,31,03,17,6.00
2010,10,31,03,18,5.90
2010,10,31,03,19,5.90
2010,10,31,03,20,5.90
2010,10,31,03,21,5.80
2010,10,31,03,22,5.80
2010,10,31,03,23,5.80
2010,10,31,03,24,5.80
2010,10,31,03,25,5.80
2010,10,31,03,26,5.70
2010,10,31,03,27,5.70
2010,10,31,03,28,5.70
2010,10,31,03,29,5.70
2010,10,31,03,30,5.70
2010,10,31,03,31,5.70
2010,10,31,03,32,5.70
2010,10,31,03,33,5.60
2010,10,31,03,34,5.60
2010,10,31,03,35,5.60
2010,10,31,03,36,5.60
2010,10,31,03,37,5.50
2010,10,31,03,38,5.50
2010,10,31,03,39,5.40
2010,10,31,03,40,5.40
2010,10,31,03,41,5.40
2010,10,31,03,42,5.40
2010,10,31,03,43,5.40
2010,10,31,03,44,5.40
2010,10,31,03,45,5.40
2010,10,31,03,46,5.40
2010,10,31,03,47,5.40
2010,10,31,03,48,5.30
2010,10,31,03,49,5.30
2010,10,31,03,50,5.30
2010,10,31,03,51,5.30
2010,10,31,03,52,5.30
2010,10,31,03,53,5.30
2010,10,31,03,54,5.30
2010,10,31,03,55,5.30
2010,10,31,03,56,5.30
2010,10,31,03,57,5.30
2010,10,31,03,58,5.30
2010,10,31,03,59,5.30
2010,10,31,04,00,5.30
2010,10,31,04,01,5.30
2010,10,31,04,02,5.30
2010,10,31,04,03,5.30
2010,10,31,04,04,5.30
2010,10,31,04,05,5.30
2010,10,31,04,06,5.30
2010,10,31,04,07,5.30
2010,10,31,04,08,5.30
2010,10,31,04,09,5.40
2010,10,31,04,10,5.40
2010,10,31,04,11,5.60
2010,10,31,04,12,5.60
2010,10,31,04,13,5.60
2010,10,31,04,14,5.70
2010,10,31,04,15,5.80
2010,10,31,04,16,5.90
2010,10,31,04,17,6.00
2010,10,31,04,18,6.20
2010,10,31,04,19,6.30
2010,10,31,04,20,6.30
2010,10,31,04,21,6.40
2010,10,31,04,22,6.40
2010,10,31,04,23,6.50
2010,10,31,04,24,6.60
2010,10,31,04,25,6.60
2010,10,31,04,26,6.60
2010,10,31,04,27,6.60
2010,10,31,04,28,6.60
2010,10,31,04,29,6.60
2010,10,31,04,30,6.60
2010,10,31,04,31,6.60
2010,10,31,04,32,6.60
2010,10,31,04,33,6.60
2010,10,31,04,34,6.60
2010,10,31,04,35,6.50
2010,10,31,04,36,6.50
2010,10,31,04,37,6.40
2010,10,31,04,38,6.40
2010,10,31,04,39,6.40
2010,10,31,04,40,6.40
2010,10,31,04,41,6.40
2010,10,31,04,42,6.40
2010,10,31,04,43,6.40
2010,10,31,04,44,6.40
2010,10,31,04,45,6.40
2010,10,31,04,46,6.40
2010,10,31,04,47,6.50
2010,10,31,04,48,6.60
2010,10,31,04,49,6.60
2010,10,31,04,50,6.70
2010,10,31,04,51,6.70
2010,10,31,04,52,6.80
2010,10,31,04,53,6.80
2010,10,31,04,54,6.90
2010,10,31,04,55,6.90
2010,10,31,04,56,6.90
2010,10,31,04,57,6.90
2010,10,31,04,58,7.00
2010,10,31,04,59,7.00
2010,10,31,05,00,7.00
2010,10,31,05,01,7.10
2010,10,31,05,02,7.10
2010,10,31,05,03,7.00
2010,10,31,05,04,6.90
2010,10,31,05,05,6.70
2010,10,31,05,06,6.60
2010,10,31,05,07,6.50
2010,10,31,05,08,6.40
2010,10,31,05,09,6.30
2010,10,31,05,10,6.20
2010,10,31,05,11,6.20
2010,10,31,05,12,6.10
2010,10,31,05,13,6.10
2010,10,31,05,14,6.10
2010,10,31,05,15,6.00
2010,10,31,05,16,5.90
2010,10,31,05,17,5.90
2010,10,31,05,18,5.80
2010,10,31,05,19,5.80
2010,10,31,05,20,5.80
2010,10,31,05,21,6.00
2010,10,31,05,22,6.20
2010,10,31,05,23,6.30
2010,10,31,05,24,6.50
2010,10,31,05,25,6.60
2010,10,31,05,26,6.70
2010,10,31,05,27,6.80
2010,10,31,05,28,6.90
2010,10,31,05,29,6.90
2010,10,31,05,30,6.90
2010,10,31,05,31,6.90
2010,10,31,05,32,6.80
2010,10,31,05,33,6.70
2010,10,31,05,34,6.60
2010,10,31,05,35,6.50
2010,10,31,05,36,6.30
2010,10,31,05,37,6.20
2010,10,31,05,38,6.10
2010,10,31,05,39,6.10
2010,10,31,05,40,6.10
2010,10,31,05,41,6.20
2010,10,31,05,42,6.20
2010,10,31,05,43,6.20
2010,10,31,05,44,6.20
2010,10,31,05,45,6.20
2010,10,31,05,46,6.10
2010,10,31,05,47,6.00
2010,10,31,05,48,5.90
2010,10,31,05,49,5.80
2010,10,31,05,50,5.70
2010,10,31,05,51,5.60
2010,10,31,05,52,5.50
2010,10,31,05,53,5.50
2010,10,31,05,54,5.40
2010,10,31,05,55,5.40
2010,10,31,05,56,5.40
2010,10,31,05,57,5.40
2010,10,31,05,58,5.40
2010,10,31,05,59,5.40
2010,10,31,06,00,5.30
2010,10,31,06,01,5.30
2010,10,31,06,02,5.30
2010,10,31,06,03,5.30
2010,10,31,06,04,5.30
2010,10,31,06,05,5.20
2010,10,31,06,06,5.20
2010,10,31,06,07,5.20
2010,10,31,06,08,5.20
2010,10,31,06,09,5.10
2010,10,31,06,10,5.10
2010,10,31,06,11,5.10
2010,10,31,06,12,5.00
2010,10,31,06,13,5.00
2010,10,31,06,14,5.00
2010,10,31,06,15,5.00
2010,10,31,06,16,4.90
2010,10,31,06,17,4.90
2010,10,31,06,18,4.90
2010,10,31,06,19,4.80
2010,10,31,06,20,4.80
2010,10,31,06,21,4.80
2010,10,31,06,22,4.70
2010,10,31,06,23,4.70
2010,10,31,06,24,4.70
2010,10,31,06,25,4.70
2010,10,31,06,26,4.60
2010,10,31,06,27,4.60
2010,10,31,06,28,4.60
2010,10,31,06,29,4.50
2010,10,31,06,30,4.50
2010,10,31,06,31,4.50
2010,10,31,06,32,4.50
2010,10,31,06,33,4.40
2010,10,31,06,34,4.40
2010,10,31,06,35,4.40
2010,10,31,06,36,4.40
2010,10,31,06,37,4.40
2010,10,31,06,38,4.40
2010,10,31,06,39,4.40
2010,10,31,06,40,4.30
2010,10,31,06,41,4.30
2010,10,31,06,42,4.30
2010,10,31,06,43,4.30
2010,10,31,06,44,4.30
2010,10,31,06,45,4.30
2010,10,31,06,46,4.30
2010,10,31,06,47,4.30
2010,10,31,06,48,4.30
2010,10,31,06,49,4.20
2010,10,31,06,50,4.20
2010,10,31,06,51,4.20
2010,10,31,06,52,4.20
2010,10,31,06,53,4.20
2010,10,31,06,54,4.20
2010,10,31,06,55,4.30
2010,10,31,06,56,4.30
2010,10,31,06,57,4.30
2010,10,31,06,58,4.30
2010,10,31,06,59,4.30
2010,10,31,07,00,4.30
2010,10,31,07,01,4.20
2010,10,31,07,02,4.20
2010,10,31,07,03,4.20
2010,10,31,07,04,4.10
2010,10,31,07,05,4.10
2010,10,31,07,06,4.10
2010,10,31,07,07,4.10
2010,10,31,07,08,4.00
2010,10,31,07,09,4.00
2010,10,31,07,10,4.00
2010,10,31,07,11,4.00
2010,10,31,07,12,4.00
2010,10,31,07,13,4.10
2010,10,31,07,14,4.20
2010,10,31,07,15,4.20
2010,10,31,07,16,4.30
2010,10,31,07,17,4.30
2010,10,31,07,18,4.30
2010,10,31,07,19,4.30
2010,10,31,07,20,4.20
2010,10,31,07,21,4.20
2010,10,31,07,22,4.20
2010,10,31,07,23,4.20
2010,10,31,07,24,4.10
2010,10,31,07,25,4.10
2010,10,31,07,26,4.10
2010,10,31,07,27,4.10
2010,10,31,07,28,4.10
2010,10,31,07,29,4.10
2010,10,31,07,30,4.10
2010,10,31,07,31,4.00
2010,10,31,07,32,4.00
2010,10,31,07,33,4.00
2010,10,31,07,34,4.00
2010,10,31,07,35,4.00
2010,10,31,07,36,4.00
2010,10,31,07,37,4.10
2010,10,31,07,38,4.10
2010,10,31,07,39,4.10
2010,10,31,07,40,4.10
2010,10,31,07,41,4.10
2010,10,31,07,42,4.00
2010,10,31,07,43,3.90
2010,10,31,07,44,3.90
2010,10,31,07,45,3.90
2010,10,31,07,46,3.80
2010,10,31,07,47,3.80
2010,10,31,07,48,3.80
2010,10,31,07,49,3.80
2010,10,31,07,50,3.80
2010,10,31,07,51,3.90
2010,10,31,07,52,3.90
2010,10,31,07,53,3.90
2010,10,31,07,54,3.80
2010,10,31,07,55,3.80
2010,10,31,07,56,3.80
2010,10,31,07,57,3.80
2010,10,31,07,58,3.80
2010,10,31,07,59,3.80
2010,10,31,08,00,3.80
2010,10,31,08,01,3.80
2010,10,31,08,02,3.80
2010,10,31,08,03,3.80
2010,10,31,08,04,3.80
2010,10,31,08,05,3.80
2010,10,31,08,06,3.70
2010,10,31,08,07,3.70
2010,10,31,08,08,3.70
2010,10,31,08,09,3.60
2010,10,31,08,10,3.60
2010,10,31,08,11,3.60
2010,10,31,08,12,3.60
2010,10,31,08,13,3.60
2010,10,31,08,14,3.60
2010,10,31,08,15,3.60
2010,10,31,08,16,3.60
2010,10,31,08,17,3.60
2010,10,31,08,18,3.50
2010,10,31,08,19,3.60
2010,10,31,08,20,3.60
2010,10,31,08,21,3.60
2010,10,31,08,22,3.70
2010,10,31,08,23,3.70
2010,10,31,08,24,3.70
2010,10,31,08,25,3.70
2010,10,31,08,26,3.70
2010,10,31,08,27,3.70
2010,10,31,08,28,3.70
2010,10,31,08,29,3.70
2010,10,31,08,30,3.70
2010,10,31,08,31,3.70
2010,10,31,08,32,3.70
2010,10,31,08,33,3.80
2010,10,31,08,34,3.80
2010,10,31,08,35,3.80
2010,10,31,08,36,3.80
2010,10,31,08,37,3.80
2010,10,31,08,38,3.90
2010,10,31,08,39,4.00
2010,10,31,08,40,4.00
2010,10,31,08,41,4.10
2010,10,31,08,42,4.20
2010,10,31,08,43,4.30
2010,10,31,08,44,4.40
2010,10,31,08,45,4.60
2010,10,31,08,46,4.70
2010,10,31,08,47,4.80
2010,10,31,08,48,4.90
2010,10,31,08,49,5.00
2010,10,31,08,50,5.20
2010,10,31,08,51,5.30
2010,10,31,08,52,5.40
2010,10,31,08,53,5.50
2010,10,31,08,54,5.50
2010,10,31,08,55,5.60
2010,10,31,08,56,5.70
2010,10,31,08,57,5.80
2010,10,31,08,58,5.80
2010,10,31,08,59,5.90
2010,10,31,09,00,5.90
2010,10,31,09,01,5.90
2010,10,31,09,02,5.90
2010,10,31,09,03,5.90
2010,10,31,09,04,5.90
2010,10,31,09,05,5.90
2010,10,31,09,06,5.90
2010,10,31,09,07,5.90
2010,10,31,09,08,5.90
2010,10,31,09,09,5.90
2010,10,31,09,10,5.90
2010,10,31,09,11,5.90
2010,10,31,09,12,5.90
2010,10,31,09,13,5.90
2010,10,31,09,14,5.90
2010,10,31,09,15,5.90
2010,10,31,09,16,5.90
2010,10,31,09,17,5.90
2010,10,31,09,18,5.90
2010,10,31,09,19,6.00
2010,10,31,09,20,6.10
2010,10,31,09,21,6.20
2010,10,31,09,22,6.30
2010,10,31,09,23,6.40
2010,10,31,09,24,6.50
2010,10,31,09,25,6.60
2010,10,31,09,26,6.70
2010,10,31,09,27,6.70
2010,10,31,09,28,6.70
2010,10,31,09,29,6.80
2010,10,31,09,30,6.80
2010,10,31,09,31,6.90
2010,10,31,09,32,7.00
2010,10,31,09,33,7.10
2010,10,31,09,34,7.20
2010,10,31,09,35,7.20
2010,10,31,09,36,7.30
2010,10,31,09,37,7.40
2010,10,31,09,38,7.40
2010,10,31,09,39,7.50
2010,10,31,09,40,7.60
2010,10,31,09,41,7.60
2010,10,31,09,42,7.70
2010,10,31,09,43,7.70
2010,10,31,09,44,7.70
2010,10,31,09,45,7.80
2010,10,31,09,46,7.80
2010,10,31,09,47,7.90
2010,10,31,09,48,8.00
2010,10,31,09,49,8.00
2010,10,31,09,50,8.10
2010,10,31,09,51,8.20
2010,10,31,09,52,8.20
2010,10,31,09,53,8.20
2010,10,31,09,54,8.30
2010,10,31,09,55,8.30
2010,10,31,09,56,8.30
2010,10,31,09,57,8.30
2010,10,31,09,58,8.30
2010,10,31,09,59,8.30
2010,10,31,10,00,8.40
2010,10,31,10,01,8.40
2010,10,31,10,02,8.40
2010,10,31,10,03,8.40
2010,10,31,10,04,8.40
2010,10,31,10,05,8.40
2010,10,31,10,06,8.40
2010,10,31,10,07,8.40
2010,10,31,10,08,8.30
2010,10,31,10,09,8.30
2010,10,31,10,10,8.30
2010,10,31,10,11,8.30
2010,10,31,10,12,8.30
2010,10,31,10,13,8.30
2010,10,31,10,14,8.30
2010,10,31,10,15,8.30
2010,10,31,10,16,8.30
2010,10,31,10,17,8.30
2010,10,31,10,18,8.30
2010,10,31,10,19,8.30
2010,10,31,10,20,8.40
2010,10,31,10,21,8.40
2010,10,31,10,22,8.40
2010,10,31,10,23,8.40
2010,10,31,10,24,8.40
2010,10,31,10,25,8.50
2010,10,31,10,26,8.50
2010,10,31,10,27,8.60
2010,10,31,10,28,8.60
2010,10,31,10,29,8.60
2010,10,31,10,30,8.70
2010,10,31,10,31,8.80
2010,10,31,10,32,8.90
2010,10,31,10,33,9.00
2010,10,31,10,34,9.10
2010,10,31,10,35,9.10
2010,10,31,10,36,9.20
2010,10,31,10,37,9.30
2010,10,31,10,38,9.40
2010,10,31,10,39,9.50
2010,10,31,10,40,9.60
2010,10,31,10,41,9.70
2010,10,31,10,42,9.80
2010,10,31,10,43,9.90
2010,10,31,10,44,10.10
2010,10,31,10,45,10.20
2010,10,31,10,46,10.40
2010,10,31,10,47,10.50
2010,10,31,10,48,10.70
2010,10,31,10,49,10.80
2010,10,31,10,50,10.90
2010,10,31,10,51,11.00
2010,10,31,10,52,11.10
2010,10,31,10,53,11.10
2010,10,31,10,54,11.20
2010,10,31,10,55,11.30
2010,10,31,10,56,11.30
2010,10,31,10,57,11.40
2010,10,31,10,58,11.40
2010,10,31,10,59,11.40
2010,10,31,11,00,11.50
2010,10,31,11,01,11.50
2010,10,31,11,02,11.60
2010,10,31,11,03,11.60
2010,10,31,11,04,11.60
2010,10,31,11,05,11.60
2010,10,31,11,06,11.50
2010,10,31,11,07,11.50
2010,10,31,11,08,11.50
2010,10,31,11,09,11.50
2010,10,31,11,10,11.50
2010,10,31,11,11,11.60
2010,10,31,11,12,11.60
2010,10,31,11,13,11.70
2010,10,31,11,14,11.80
2010,10,31,11,15,11.80
2010,10,31,11,16,11.80
2010,10,31,11,17,11.80
2010,10,31,11,18,11.80
2010,10,31,11,19,11.80
2010,10,31,11,20,11.80
2010,10,31,11,21,11.80
2010,10,31,11,22,11.80
2010,10,31,11,23,11.80
2010,10,31,11,24,11.80
2010,10,31,11,25,11.80
2010,10,31,11,26,11.80
2010,10,31,11,27,11.80
2010,10,31,11,28,11.80
2010,10,31,11,29,11.80
2010,10,31,11,30,11.80
2010,10,31,11,31,11.80
2010,10,31,11,32,11.80
2010,10,31,11,33,11.80
2010,10,31,11,34,11.80
2010,10,31,11,35,11.80
2010,10,31,11,36,11.80
2010,10,31,11,37,11.80
2010,10,31,11,38,11.80
2010,10,31,11,39,11.80
2010,10,31,11,40,11.80
2010,10,31,11,41,11.70
2010,10,31,11,42,11.70
2010,10,31,11,43,11.70
2010,10,31,11,44,11.70
2010,10,31,11,45,11.70
2010,10,31,11,46,11.80
2010,10,31,11,47,11.80
2010,10,31,11,48,11.80
2010,10,31,11,49,11.80
2010,10,31,11,50,11.80
2010,10,31,11,51,11.90
2010,10,31,11,52,11.90
2010,10,31,11,53,11.90
2010,10,31,11,54,11.90
2010,10,31,11,55,11.80
2010,10,31,11,56,11.80
2010,10,31,11,57,11.90
2010,10,31,11,58,12.00
2010,10,31,11,59,12.10
2010,10,31,12,00,12.20
2010,10,31,12,01,12.30
2010,10,31,12,02,12.40
2010,10,31,12,03,12.40
2010,10,31,12,04,12.50
2010,10,31,12,05,12.50
2010,10,31,12,06,12.40
2010,10,31,12,07,12.40
2010,10,31,12,08,12.40
2010,10,31,12,09,12.40
2010,10,31,12,10,12.30
2010,10,31,12,11,12.30
2010,10,31,12,12,12.30
2010,10,31,12,13,12.20
2010,10,31,12,14,12.20
2010,10,31,12,15,12.10
2010,10,31,12,16,12.10
2010,10,31,12,17,12.00
2010,10,31,12,18,12.00
2010,10,31,12,19,11.90
2010,10,31,12,20,11.90
2010,10,31,12,21,11.90
2010,10,31,12,22,11.90
2010,10,31,12,23,11.90
2010,10,31,12,24,11.80
2010,10,31,12,25,11.90
2010,10,31,12,26,11.90
2010,10,31,12,27,11.90
2010,10,31,12,28,11.90
2010,10,31,12,29,11.90
2010,10,31,12,30,11.90
2010,10,31,12,31,12.00
2010,10,31,12,32,12.00
2010,10,31,12,33,12.00
2010,10,31,12,34,12.00
2010,10,31,12,35,11.90
2010,10,31,12,36,11.90
2010,10,31,12,37,11.90
2010,10,31,12,38,11.80
2010,10,31,12,39,11.80
2010,10,31,12,40,11.80
2010,10,31,12,41,11.70
2010,10,31,12,42,11.70
2010,10,31,12,43,11.70
2010,10,31,12,44,11.60
2010,10,31,12,45,11.60
2010,10,31,12,46,11.60
2010,10,31,12,47,11.50
2010,10,31,12,48,11.50
2010,10,31,12,49,11.60
2010,10,31,12,50,11.60
2010,10,31,12,51,11.60
2010,10,31,12,52,11.50
2010,10,31,12,53,11.50
2010,10,31,12,54,11.50
2010,10,31,12,55,11.50
2010,10,31,12,56,11.50
2010,10,31,12,57,11.50
2010,10,31,12,58,11.50
2010,10,31,12,59,11.40
2010,10,31,13,00,11.40
2010,10,31,13,01,11.40
2010,10,31,13,02,11.50
2010,10,31,13,03,11.50
2010,10,31,13,04,11.50
2010,10,31,13,05,11.50
2010,10,31,13,06,11.50
2010,10,31,13,07,11.50
2010,10,31,13,08,11.50
2010,10,31,13,09,11.50
2010,10,31,13,10,11.50
2010,10,31,13,11,11.40
2010,10,31,13,12,11.40
2010,10,31,13,13,11.40
2010,10,31,13,14,11.40
2010,10,31,13,15,11.40
2010,10,31,13,16,11.50
2010,10,31,13,17,11.50
2010,10,31,13,18,11.50
2010,10,31,13,19,11.40
2010,10,31,13,20,11.40
2010,10,31,13,21,11.40
2010,10,31,13,22,11.40
2010,10,31,13,23,11.40
2010,10,31,13,24,11.40
2010,10,31,13,25,11.40
2010,10,31,13,26,11.50
2010,10,31,13,27,11.50
2010,10,31,13,28,11.60
2010,10,31,13,29,11.60
2010,10,31,13,30,11.60
2010,10,31,13,31,11.50
2010,10,31,13,32,11.60
2010,10,31,13,33,11.60
2010,10,31,13,34,11.60
2010,10,31,13,35,11.60
2010,10,31,13,36,11.60
2010,10,31,13,37,11.60
2010,10,31,13,38,11.60
2010,10,31,13,39,11.60
2010,10,31,13,40,11.60
2010,10,31,13,41,11.60
2010,10,31,13,42,11.60
2010,10,31,13,43,11.60
2010,10,31,13,44,11.60
2010,10,31,13,45,11.60
2010,10,31,13,46,11.60
2010,10,31,13,47,11.60
2010,10,31,13,48,11.60
2010,10,31,13,49,11.60
2010,10,31,13,50,11.60
2010,10,31,13,51,11.60
2010,10,31,13,52,11.60
2010,10,31,13,53,11.60
2010,10,31,13,54,11.60
2010,10,31,13,55,11.60
2010,10,31,13,56,11.60
2010,10,31,13,57,11.60
2010,10,31,13,58,11.60
2010,10,31,13,59,11.60
2010,10,31,14,00,11.60
2010,10,31,14,01,11.60
2010,10,31,14,02,11.60
2010,10,31,14,03,11.60
2010,10,31,14,04,11.60
2010,10,31,14,05,11.60
2010,10,31,14,06,11.60
2010,10,31,14,07,11.60
2010,10,31,14,08,11.60
2010,10,31,14,09,11.60
2010,10,31,14,10,11.60
2010,10,31,14,11,11.60
2010,10,31,14,12,11.60
2010,10,31,14,13,11.60
2010,10,31,14,14,11.60
2010,10,31,14,15,11.60
2010,10,31,14,16,11.50
2010,10,31,14,17,11.50
2010,10,31,14,18,11.40
2010,10,31,14,19,11.40
2010,10,31,14,20,11.40
2010,10,31,14,21,11.40
2010,10,31,14,22,11.40
2010,10,31,14,23,11.40
2010,10,31,14,24,11.40
2010,10,31,14,25,11.40
2010,10,31,14,26,11.30
2010,10,31,14,27,11.30
2010,10,31,14,28,11.30
2010,10,31,14,29,11.30
2010,10,31,14,30,11.30
2010,10,31,14,31,11.30
2010,10,31,14,32,11.30
2010,10,31,14,33,11.30
2010,10,31,14,34,11.30
2010,10,31,14,35,11.20
2010,10,31,14,36,11.20
2010,10,31,14,37,11.20
2010,10,31,14,38,11.20
2010,10,31,14,39,11.20
2010,10,31,14,40,11.20
2010,10,31,14,41,11.20
2010,10,31,14,42,11.20
2010,10,31,14,43,11.20
2010,10,31,14,44,11.20
2010,10,31,14,45,11.20
2010,10,31,14,46,11.20
2010,10,31,14,47,11.10
2010,10,31,14,48,11.10
2010,10,31,14,49,11.10
2010,10,31,14,50,11.10
2010,10,31,14,51,11.10
2010,10,31,14,52,11.10
2010,10,31,14,53,11.10
2010,10,31,14,54,11.00
2010,10,31,14,55,11.00
2010,10,31,14,56,11.00
2010,10,31,14,57,11.00
2010,10,31,14,58,11.00
2010,10,31,14,59,11.00
2010,10,31,15,00,11.00
2010,10,31,15,01,11.00
2010,10,31,15,02,10.90
2010,10,31,15,03,10.90
2010,10,31,15,04,10.90
2010,10,31,15,05,10.90
2010,10,31,15,06,10.90
2010,10,31,15,07,10.90
2010,10,31,15,08,10.90
2010,10,31,15,09,10.90
2010,10,31,15,10,10.90
2010,10,31,15,11,10.90
2010,10,31,15,12,10.90
2010,10,31,15,13,10.90
2010,10,31,15,14,10.90
2010,10,31,15,15,10.90
2010,10,31,15,16,10.90
2010,10,31,15,17,10.90
2010,10,31,15,18,10.90
2010,10,31,15,19,10.90
2010,10,31,15,20,10.90
2010,10,31,15,21,10.90
2010,10,31,15,22,10.90
2010,10,31,15,23,10.90
2010,10,31,15,24,10.90
2010,10,31,15,25,10.90
2010,10,31,15,26,10.90
2010,10,31,15,27,10.90
2010,10,31,15,28,10.90
2010,10,31,15,29,10.90
2010,10,31,15,30,10.90
2010,10,31,15,31,10.90
2010,10,31,15,32,10.90
2010,10,31,15,33,10.90
2010,10,31,15,34,10.90
2010,10,31,15,35,10.90
2010,10,31,15,36,10.90
2010,10,31,15,37,10.90
2010,10,31,15,38,10.90
2010,10,31,15,39,10.80
2010,10,31,15,40,10.80
2010,10,31,15,41,10.80
2010,10,31,15,42,10.80
2010,10,31,15,43,10.80
2010,10,31,15,44,10.80
2010,10,31,15,45,10.80
2010,10,31,15,46,10.80
2010,10,31,15,47,10.80
2010,10,31,15,48,10.80
2010,10,31,15,49,10.80
2010,10,31,15,50,10.80
2010,10,31,15,51,10.80
2010,10,31,15,52,10.80
2010,10,31,15,53,10.80
2010,10,31,15,54,10.80
2010,10,31,15,55,10.80
2010,10,31,15,56,10.80
2010,10,31,15,57,10.80
2010,10,31,15,58,10.80
2010,10,31,15,59,10.90
2010,10,31,16,00,10.90
2010,10,31,16,01,10.90
2010,10,31,16,02,10.90
2010,10,31,16,03,10.90
2010,10,31,16,04,10.90
2010,10,31,16,05,10.90
2010,10,31,16,06,11.00
2010,10,31,16,07,11.00
2010,10,31,16,08,11.00
2010,10,31,16,09,11.00
2010,10,31,16,10,11.00
2010,10,31,16,11,11.10
2010,10,31,16,12,11.10
2010,10,31,16,13,11.10
2010,10,31,16,14,11.10
2010,10,31,16,15,11.10
2010,10,31,16,16,11.10
2010,10,31,16,17,11.10
2010,10,31,16,18,11.10
2010,10,31,16,19,11.10
2010,10,31,16,20,11.00
2010,10,31,16,21,11.00
2010,10,31,16,22,11.00
2010,10,31,16,23,11.00
2010,10,31,16,24,11.00
2010,10,31,16,25,11.00
2010,10,31,16,26,11.00
2010,10,31,16,27,11.00
2010,10,31,16,28,11.00
2010,10,31,16,29,10.90
2010,10,31,16,30,10.90
2010,10,31,16,31,10.90
2010,10,31,16,32,10.90
2010,10,31,16,33,10.90
2010,10,31,16,34,10.90
2010,10,31,16,35,10.90
2010,10,31,16,36,10.90
2010,10,31,16,37,10.90
2010,10,31,16,38,10.90
2010,10,31,16,39,10.90
2010,10,31,16,40,10.80
2010,10,31,16,41,10.80
2010,10,31,16,42,10.80
2010,10,31,16,43,10.80
2010,10,31,16,44,10.80
2010,10,31,16,45,10.80
2010,10,31,16,46,10.80
2010,10,31,16,47,10.80
2010,10,31,16,48,10.80
2010,10,31,16,49,10.80
2010,10,31,16,50,10.80
2010,10,31,16,51,10.80
2010,10,31,16,52,10.80
2010,10,31,16,53,10.80
2010,10,31,16,54,10.80
2010,10,31,16,55,10.80
2010,10,31,16,56,10.80
2010,10,31,16,57,10.80
2010,10,31,16,58,10.80
2010,10,31,16,59,10.80
2010,10,31,17,00,10.80
2010,10,31,17,01,10.70
2010,10,31,17,02,10.70
2010,10,31,17,03,10.70
2010,10,31,17,04,10.70
2010,10,31,17,05,10.70
2010,10,31,17,06,10.70
2010,10,31,17,07,10.70
2010,10,31,17,08,10.70
2010,10,31,17,09,10.70
2010,10,31,17,10,10.70
2010,10,31,17,11,10.70
2010,10,31,17,12,10.70
2010,10,31,17,13,10.70
2010,10,31,17,14,10.70
2010,10,31,17,15,10.70
2010,10,31,17,16,10.60
2010,10,31,17,17,10.60
2010,10,31,17,18,10.60
2010,10,31,17,19,10.60
2010,10,31,17,20,10.60
2010,10,31,17,21,10.50
2010,10,31,17,22,10.50
2010,10,31,17,23,10.40
2010,10,31,17,24,10.40
2010,10,31,17,25,10.40
2010,10,31,17,26,10.40
2010,10,31,17,27,10.30
2010,10,31,17,28,10.30
2010,10,31,17,29,10.30
2010,10,31,17,30,10.30
2010,10,31,17,31,10.20
2010,10,31,17,32,10.20
2010,10,31,17,33,10.20
2010,10,31,17,34,10.20
2010,10,31,17,35,10.20
2010,10,31,17,36,10.20
2010,10,31,17,37,10.20
2010,10,31,17,38,10.20
2010,10,31,17,39,10.20
2010,10,31,17,40,10.20
2010,10,31,17,41,10.30
2010,10,31,17,42,10.30
2010,10,31,17,43,10.30
2010,10,31,17,44,10.30
2010,10,31,17,45,10.30
2010,10,31,17,46,10.30
2010,10,31,17,47,10.30